www.pogodaiklimat.ru

Погода и климат >> Архив погоды >> Финляндия >> Кеми


ПОГОДА в Кеми

  • Прогноз погоды в Кеми
  • Монитор погоды в Кеми

АРХИВ ПОГОДЫ в Кеми

Время (UTC), дата Ветер
(напр.,м/с)
 
Видим.   Явления Облачность Т
(С)
Тd
(С)
f
(%)
Тe
(С)
Тes
(С)
Комфортность P
(гПа)
Po
(гПа)
Тmin
(С)
Tmax
(С)
R
(мм)
R24
(мм)
S
(см)
22 13.09 СЗ 11 н/о н/о +10.3 +5.0 70 +6 +6 1004.1 1002.0
23 13.09 СЗ 11 н/о н/о +10.0 +5.1 72 +5 +5 1004.7 1002.7
00 14.09 С 10-12
{13}
н/о н/о +9.7 +5.0 73 +5 +5 1005.2 1003.2
01 14.09 С 11 н/о н/о +9.5 +4.7 72 +5 +5 1005.7 1003.6
02 14.09 С 10 н/о н/о +9.2 +4.6 73 +5 +5 1006.2 1004.1
03 14.09 С 9-10
{11}
н/о н/о +9.1 +4.5 73 +5 +5 1006.9 1004.8
04 14.09 С 8 н/о н/о +9.0 +4.7 74 +5 +5 1007.3 1005.2
05 14.09 С 8-9
{9}
н/о н/о +9.0 +4.5 73 +5 +5 1007.6 1005.5
06 14.09 С 6-8
{8}
н/о н/о +8.9 +4.0 71 +5 +5 1008.2 1006.2 +8.7 +11.4
07 14.09 С 5-8
{8}
н/о н/о +8.6 +3.8 72 +5 +5 1008.6 1006.6
08 14.09 С 5-6
{7}
н/о н/о +8.7 +3.6 70 +5 +5 1008.9 1006.8
09 14.09 С 3-4
{5}
н/о н/о +8.9 +4.3 73 +7 +7 1009.2 1007.2
10 14.09 СЗ 4 н/о н/о +9.1 +4.2 71 +6 +6 1009.6 1007.5
11 14.09 З 4 н/о н/о +9.4 +4.3 70 +7 +7 1009.8 1007.8
12 14.09 З 4-6
{6}
н/о н/о +9.8 +3.1 63 +7 +7 1010.1 1008.0
13 14.09 З 5-6
{6}
н/о н/о +10.4 +3.8 64 +8 +8 1010.0 1008.0
14 14.09 З 5 н/о н/о +10.8 +3.0 59 +8 +8 1010.0 1007.9
15 14.09 ЮЗ 5-5
{6}
н/о н/о +10.8 +3.1 59 +8 +8 1009.7 1007.6
16 14.09 ЮЗ 4 н/о н/о +10.7 +3.2 60 +9 +9 1009.3 1007.3
17 14.09 ЮЗ 4-5
{6}
н/о н/о +10.8 +3.4 60 +9 +9 1008.9 1006.9
18 14.09 ЮЗ 4-5
{5}
н/о н/о +10.8 +2.7 57 +9 +9 1008.3 1006.2 +8.6 +11.0
19 14.09 ЮЗ 4 н/о н/о +11.1 +3.6 60 +9 +9 1008.2 1006.2
20 14.09 ЮЗ 2-5
{5}
н/о н/о +11.4 +3.2 57 +11 +11 1007.3 1005.2
21 14.09 Ю 4-6
{6}
н/о н/о +11.4 +4.8 64 +9 +9 1006.6 1004.6
22 14.09 Ю 5 н/о н/о +11.4 +4.2 61 +9 +9 1005.8 1003.7
23 14.09 Ю 6 н/о н/о +11.6 +3.5 58 +9 +9 1004.8 1002.8
00 15.09 Ю 7-9
{9}
н/о н/о +11.6 +3.5 58 +9 +9 1003.9 1001.9
01 15.09 Ю 8 н/о н/о +11.4 +4.0 60 +8 +8 1003.0 1001.0
03 15.09 Ю 10-13
{13}
н/о н/о +11.3 +4.9 65 +8 +8 1000.1 998.0
04 15.09 ЮЗ 8 н/о н/о +9.8 +2.3 60 +6 +6 999.4 997.3
05 15.09 ЮВ 10-12
{12}
н/о н/о +10.3 +5.4 72 +6 +6 997.7 995.7
06 15.09 ЮВ 10-12
{12}
н/о н/о +9.1 +6.0 81 +4 +4 996.6 994.6 +9.0 +11.7
07 15.09 ЮВ 11-13
{13}
н/о н/о +9.3 +5.5 77 +4 +4 995.6 993.6
08 15.09 ЮВ 11-12
{14}
н/о н/о +9.5 +5.0 73 +5 +5 994.6 992.5
09 15.09 ЮВ 9-11
{13}
н/о н/о +9.2 +4.9 74 +5 +5 993.8 991.7
10 15.09 ЮВ 10 н/о н/о +9.3 +5.4 77 +5 +5 992.8 990.8
11 15.09 ЮВ 10 н/о н/о +9.7 +4.0 68 +5 +5 992.2 990.2
12 15.09 В 10-11
{12}
н/о н/о +10.6 +3.4 61 +7 +7 991.1 989.1
13 15.09 В 11-12
{14}
н/о н/о +11.0 +5.0 66 +7 +7 990.3 988.3
14 15.09 В 15-14
{18}
н/о н/о +10.4 +3.8 64 +5 +5 989.7 987.7
15 15.09 В 11-13
{20}
н/о н/о +10.2 +4.1 66 +6 +6 989.4 987.4
16 15.09 В 13 н/о н/о +11.1 +4.2 62 +7 +7 989.1 987.1
17 15.09 В 14-16
{18}
н/о н/о +10.7 +2.5 57 +6 +6 989.0 987.0
18 15.09 В 15-18
{18}
н/о н/о +10.7 +2.4 56 +6 +6 988.8 986.8 +8.7 +11.2
19 15.09 СВ 14 н/о н/о +10.3 +2.9 60 +6 +6 988.9 986.9
20 15.09 СВ 14 н/о н/о +10.0 +3.2 63 +5 +5 989.2 987.2
21 15.09 СВ 13-15
{16}
н/о н/о +9.2 +2.9 65 +4 +4 989.5 987.5
22 15.09 СВ 13-15
{15}
н/о н/о +9.0 +3.2 67 +4 +4 990.1 988.0
23 15.09 СВ 13 н/о н/о +9.1 +2.7 64 +4 +4 990.3 988.3
00 16.09 СВ 13-16
{16}
н/о н/о +8.3 +2.5 67 +3 +3 990.8 988.8
01 16.09 СВ 13-15
{16}
н/о н/о +7.8 +2.6 70 +2 +2 991.3 989.3
02 16.09 СВ 12 н/о н/о +7.1 +2.8 74 +1 +1 991.9 989.9
03 16.09 СВ 12-14
{14}
н/о н/о +6.7 +2.8 76 +1 +1 992.6 990.5
04 16.09 С 12 н/о н/о +6.5 +4.1 85 0 0 992.8 990.8
05 16.09 С 10 н/о н/о +6.0 +3.3 83 0 0 993.1 991.1
06 16.09 С 10-12
{13}
н/о н/о +5.5 +2.8 83 -1 -1 993.3 991.3 +5.5 +10.9
07 16.09 С 10 н/о н/о +5.3 +3.2 86 -1 -1 993.7 991.7
08 16.09 С 8-9
{13}
н/о н/о +5.1 +2.6 84 -1 -1 994.0 991.9
09 16.09 С 8-9
{9}
н/о н/о +6.1 +3.1 81 +1 +1 994.1 992.1
10 16.09 С 9-10
{11}
н/о н/о +6.5 +2.6 76 +1 +1 994.4 992.3
11 16.09 С 8 н/о н/о +7.7 +3.3 74 +3 +3 994.7 992.7
12 16.09 С 7-9
{10}
н/о н/о +8.3 +3.0 69 +4 +4 995.0 993.0
13 16.09 С 7 н/о н/о +8.9 +3.3 68 +5 +5 995.1 993.1
14 16.09 С 9 н/о н/о +8.9 +3.9 71 +4 +4 995.2 993.2
15 16.09 С 8-10
{11}
н/о н/о +8.2 +4.1 75 +4 +4 995.4 993.4
16 16.09 С 8 н/о н/о +8.1 +4.4 77 +3 +3 995.7 993.6
17 16.09 С 8 н/о н/о +7.8 +5.6 86 +3 +3 995.7 993.7
18 16.09 С 8-10
{10}
н/о н/о +8.4 +5.5 82 +4 +4 995.7 993.6 +4.8 +9.1
19 16.09 С 8-10
{10}
н/о н/о +8.7 +5.5 80 +4 +4 995.7 993.6
20 16.09 С 9-10
{10}
н/о н/о +8.8 +5.6 80 +4 +4 995.7 993.7
21 16.09 С 9-10
{11}
н/о н/о +8.7 +5.7 81 +4 +4 995.6 993.6
22 16.09 С 8 н/о н/о +8.8 +5.3 79 +4 +4 995.8 993.8
23 16.09 С 7-9
{9}
н/о н/о +8.8 +6.0 83 +5 +5 995.9 993.9
00 17.09 С 7-9
{9}
н/о н/о +8.6 +5.6 81 +4 +4 995.9 993.9
01 17.09 СВ 7-8
{9}
н/о н/о +8.3 +5.4 82 +4 +4 996.0 994.0
02 17.09 СВ 8-9
{10}
н/о н/о +8.0 +5.5 84 +3 +3 996.1 994.0
03 17.09 СВ 7 н/о н/о +8.0 +5.9 87 +3 +3 996.3 994.3
04 17.09 СВ 8 н/о н/о +7.9 +5.7 86 +3 +3 996.4 994.3
05 17.09 СВ 8 н/о н/о +8.0 +6.0 87 +3 +3 996.5 994.5
06 17.09 СВ 7-9
{10}
н/о н/о +8.1 +5.8 85 +4 +4 996.9 994.8 +7.8 +9.1
07 17.09 СВ 7-8
{9}
н/о н/о +8.0 +5.8 86 +4 +4 997.3 995.3
08 17.09 СВ 6-7
{8}
н/о н/о +8.6 +5.8 83 +5 +5 997.9 995.8
09 17.09 СВ 5-6
{7}
н/о н/о +9.0 +5.9 81 +6 +6 998.5 996.5
10 17.09 В 5-6
{6}
н/о н/о +9.3 +5.9 79 +6 +6 998.9 996.9
11 17.09 СВ 4 н/о н/о +9.6 +5.2 74 +7 +7 999.4 997.4
12 17.09 СВ 5-6
{6}
н/о н/о +9.8 +4.1 68 +7 +7 999.9 997.9
13 17.09 СВ 6 н/о н/о +9.9 +5.3 73 +7 +7 1000.2 998.1
14 17.09 СВ 9 н/о н/о +9.3 +4.8 73 +5 +5 1000.5 998.5
15 17.09 СВ 10-11
{11}
н/о н/о +9.6 +4.4 70 +5 +5 1000.8 998.7
16 17.09 СВ 11 н/о н/о +9.1 +3.5 68 +4 +4 1001.4 999.3
17 17.09 СВ 10-12
{13}
н/о н/о +9.0 +3.1 67 +4 +4 1001.8 999.8
18 17.09 СВ 10-13
{13}
н/о н/о +8.8 +1.6 61 +4 +4 1002.2 1000.1 +7.9 +9.9
19 17.09 СВ 10 н/о н/о +9.0 +1.0 57 +5 +5 1002.5 1000.5
20 17.09 СВ 10 н/о н/о +8.6 +0.3 56 +4 +4 1003.1 1001.0
21 17.09 СВ 9-11
{12}
н/о н/о +8.4 +0.8 59 +4 +4 1003.6 1001.5
22 17.09 СВ 9 н/о н/о +8.1 +2.1 66 +3 +3 1003.9 1001.8
23 17.09 СВ 8 н/о н/о +7.6 +2.4 70 +3 +3 1004.3 1002.2
00 18.09 СВ 8-9
{10}
н/о н/о +7.9 +2.4 68 +3 +3 1004.8 1002.8
01 18.09 СВ 7-8
{9}
н/о н/о +7.4 +2.7 72 +3 +3 1005.1 1003.0
02 18.09 СВ 6-8
{8}
н/о н/о +7.0 +3.0 76 +3 +3 1005.6 1003.5
03 18.09 СВ 6-8
{8}
н/о н/о +6.5 +2.4 75 +2 +2 1006.0 1003.9
04 18.09 СВ 7 н/о н/о +6.5 +2.8 77 +2 +2 1006.4 1004.3
05 18.09 СВ 6 н/о н/о +6.4 +2.6 77 +2 +2 1006.8 1004.8
07 18.09 СВ 6-8
{8}
н/о н/о +6.5 +2.2 74 +2 +2 1007.8 1005.7
08 18.09 СВ 6-7
{7}
н/о н/о +6.5 +2.5 76 +2 +2 1008.3 1006.2
09 18.09 СВ 5-6
{8}
н/о н/о +6.8 +1.7 70 +3 +3 1009.0 1006.9
10 18.09 СВ 4 н/о н/о +6.9 +1.1 67 +4 +4 1009.4 1007.3
11 18.09 СВ 3-4
{5}
н/о н/о +7.2 -0.3 59 +5 +5 1009.4 1007.3
13 18.09 С 2 н/о н/о +7.5 -1.3 54 +6 +6 1009.7 1007.7
14 18.09 С 2-3
{3}
н/о н/о +7.8 -0.2 57 +6 +6 1009.9 1007.8
15 18.09 СЗ 1-2
{3}
н/о н/о +7.9 -1.0 53 +8 +8 1009.8 1007.8
16 18.09 ЮЗ 1 н/о н/о +8.0 -1.1 53 +8 +8 1009.9 1007.9
17 18.09 СЗ 1 н/о н/о +8.1 -1.2 52 +8 +8 1009.9 1007.9
18 18.09 С 2-3
{3}
н/о н/о +8.3 -1.0 52 +7 +7 1010.1 1008.1 +6.4 +8.4
19 18.09 СВ 2 н/о н/о +8.1 -0.8 53 +7 +7 1010.3 1008.2
20 18.09 В 2-4
{7}
н/о н/о +7.6 0.0 59 +6 +6 1010.4 1008.3
21 18.09 С 4-5
{7}
н/о н/о +6.6 +1.7 71 +3 +3 1010.6 1008.5
22 18.09 З 3 н/о н/о +6.4 +2.0 73 +3 +3 1010.5 1008.5
01 19.09 СВ 7 н/о н/о +5.8 +2.0 77 +1 +1 1010.9 1008.9
02 19.09 СВ 6-7
{9}
н/о н/о +5.1 +2.4 83 0 0 1011.2 1009.1
03 19.09 СВ 8-10
{10}
н/о н/о +5.6 +1.7 76 0 0 1011.1 1009.0
04 19.09 С 7 н/о н/о +6.1 +1.6 73 +1 +1 1011.4 1009.3
05 19.09 С 6 н/о н/о +6.2 +2.8 79 +2 +2 1011.7 1009.6
08 19.09 С 7-8
{10}
н/о н/о +6.2 +1.7 73 +1 +1 1012.9 1010.8
09 19.09 С 7-8
{10}
н/о н/о +5.8 +1.3 73 +1 +1 1013.4 1011.3
10 19.09 СЗ 7 н/о н/о +6.1 +1.2 71 +1 +1 1013.5 1011.5
11 19.09 СЗ 8 н/о н/о +6.7 +1.2 68 +2 +2 1013.7 1011.6
12 19.09 СЗ 8-10
{11}
н/о н/о +7.0 -0.8 58 +2 +2 1013.8 1011.7
13 19.09 СЗ 9 н/о н/о +7.6 -1.3 53 +3 +3 1013.6 1011.6
14 19.09 СЗ 8 н/о н/о +7.9 -0.8 54 +4 +4 1013.6 1011.5
15 19.09 СЗ 8-15
{18}
н/о н/о +6.7 -1.4 56 +2 +2 1013.7 1011.7
16 19.09 СЗ 10 н/о н/о +8.7 -1.9 47 +4 +4 1013.1 1011.0
17 19.09 СЗ 8 н/о н/о +8.6 -2.1 47 +5 +5 1013.0 1010.9
18 19.09 СЗ 8-10
{11}
н/о н/о +8.8 -2.0 47 +5 +5 1012.8 1010.8 +5.3 +9.0
19 19.09 СЗ 10-12
{12}
н/о н/о +8.9 -1.9 47 +5 +5 1012.7 1010.7
20 19.09 СЗ 9-11
{12}
н/о н/о +8.6 -0.5 53 +4 +4 1012.7 1010.6
21 19.09 СЗ 7-9
{11}
н/о н/о +8.3 -0.4 54 +4 +4 1012.9 1010.8
22 19.09 СЗ 7 н/о н/о +8.2 -0.7 53 +4 +4 1013.0 1010.9
23 19.09 СЗ 7-9
{9}
н/о н/о +7.7 +1.0 63 +3 +3 1012.9 1010.9
00 20.09 СЗ 8-10
{10}
н/о н/о +7.3 +0.3 61 +3 +3 1012.8 1010.7
01 20.09 СЗ 8-9
{9}
н/о н/о +7.2 +0.8 64 +2 +2 1012.4 1010.3
02 20.09 СЗ 7 н/о н/о +6.9 +1.2 67 +2 +2 1012.3 1010.2
03 20.09 СЗ 8-9
{9}
н/о н/о +6.8 +0.9 66 +2 +2 1011.9 1009.8
04 20.09 СЗ 8 н/о н/о +6.9 +1.2 67 +2 +2 1011.9 1009.9
05 20.09 СЗ 11-13
{13}
н/о н/о +7.3 -1.5 54 +2 +2 1011.6 1009.6
06 20.09 СЗ 10-12
{13}
н/о н/о +6.9 -0.8 58 +2 +2 1011.5 1009.4 +6.7 +9.1
07 20.09 СЗ 9-11
{12}
н/о н/о +6.9 -1.1 57 +2 +2 1011.5 1009.4
08 20.09 С 8-9
{10}
н/о н/о +6.6 -0.9 59 +2 +2 1011.7 1009.7
09 20.09 СЗ 6-7
{9}
н/о н/о +6.8 -0.7 59 +3 +3 1011.9 1009.8
10 20.09 СЗ 5 н/о н/о +6.9 +0.6 64 +3 +3 1011.9 1009.8
11 20.09 З 5 н/о н/о +7.1 +0.1 61 +3 +3 1011.7 1009.6
12 20.09 З 6-7
{7}
н/о н/о +7.7 0.0 58 +4 +4 1011.6 1009.6
14 20.09 З 6 н/о н/о +8.0 -0.5 55 +4 +4 1011.0 1008.9
15 20.09 З 6-7
{8}
н/о н/о +8.1 -1.7 50 +5 +5 1010.4 1008.4
17 20.09 З 6 н/о н/о +8.4 -1.1 51 +5 +5 1010.0 1008.0
18 20.09 З 6-7
{8}
н/о н/о +8.7 -1.7 48 +5 +5 1009.6 1007.6 +6.5 +8.7
19 20.09 З 6-6
{8}
н/о н/о +8.6 -2.1 47 +5 +5 1009.6 1007.6

 

Местоположение метеостанции Кеми (Финляндия): широта 65.39 долгота 24.10 высота над уровнем моря 25 м.

В архиве по умолчанию представлена погода в Кеми за последнюю неделю. Архивные данные за месяц целиком и за предыдущие месяцы, начиная с января 2011 года, Вы можете получить, выбрав интересующий диапазон дат из раскрывающегося списка и нажав кнопку "Ввод!".


*Определитесь, кто Вы:
робот инопланетянин человек

Внимание! Время в таблицах - всемирное. Для получения местного времени необходимо прибавить поправку, которая равна 1 ч.

Смотрите также архив погоды в соседних городах и на ближайших метеорологических станциях:

Погода в Кеми Айос (Финляндия) (37 км)
Погода на Маяке Marjaniemi (Финляндия) (44 км)
Погода в Хапаранда аэропорту (Швеция) (48 км)
Погода в Кеми аэропорту (Финляндия) (49 км)
Погода в Хайлуото (Финляндия) (51 км)
Погода в Торнио (Финляндия) (51 км)
Погода на Гуфускаларе (Исландия) (55 км)
Погода в Стороне (Швеция) (58 км)
Погода в Дйнжандихеиди (Исландия) (58 км)
Погода в Оулу (Финляндия) (74 км)

Пояснения к столбцам:

Ветер - указаны скорость ветра в м/с - средняя за 10 мин, порывы в срок и между сроками (в фигурных скобках) и направление, откуда дует ветер: С - северный, СВ - северо-восточный, В - восточный, ЮВ - юго-восточный, Ю - южный, ЮЗ - юго-западный, З - западный, СЗ - северо-западный.
Видимость - горизонтальная дальность видимости в метрах или километрах. При видимости от 1 до 10 км при отсутствии осадков обычно наблюдается дымка, при ухудшении видимости до 1 км и менее - туман. В сухую погоду видимость может ухудшаться дымом, пылью или мглою.
Явления - указаны атмосферные явления, наблюдавшиеся в срок или в последний час перед сроком; фигурными скобками обозначены явления, наблюдавшиеся между сроками (за 1-3 часа до срока); квадратными скобками обозначены град или гололедные отложения с указанием их диаметра в мм.
Облачность - указаны через наклонную черту общая и нижняя облачность в баллах и высота нижней границы облаков в метрах; квадратными скобками обозначены формы облаков: Ci - перистые, Cs - перисто-слоистые, Cc - перисто-кучевые, Ac - высококучевые, As - высокослоистые, Sc - слоисто-кучевые, Ns - слоисто-дождевые, Cu - кучевые, Cb - кучево-дождевые. Подробнее классификацию облаков см. в Атласе облаков (PDF).
T - Температура воздуха - температура, измеренная на высоте 2 м над землей.
Td - Температура точки росы - температура, при понижении до которой содержащийся в воздухе водяной пар достигнет насыщения.
f - Относительная влажность воздуха - влажноcть воздуха, измеренная на высоте 2 м над землей.
Te - Эффективная температура - температура, которую ощущает одетый по сезону человек в тени. Характеристика душности погоды. При расчете учитывается влияние влажности воздуха и скорости ветра на теплоощущения человека.
Tes - Эффективная температура на солнце - температура, которую ощущает человек, с поправкой на солнечный нагрев. Характеристика знойности погоды. Зависит от высоты солнца над горизонтом, облачности и скорости ветра. Ночью, в пасмурную погоду, а также при ветре 12 м/с и более поправка равна нулю.
P - Атмосферное давление - приведенное к уровню моря атмосферное давление.
Po - Атмосферное давление - измеренное на уровне метеостанции атмосферное давление.
Tmin - Минимальная температура - минимум температуры воздуха на высоте 2 м над землей.
Tmax - Максимальная температура - максимум температуры воздуха на высоте 2 м над землей.
R - Количество осадков - Количество выпавших осадков за период времени, мм. При наведении курсора мыши на число - период времени, за который выпало указанное количество осадков.
R24 - Количество осадков - Количество выпавших осадков за 24 часа, мм.
S - Снежный покров - Высота снежного покрова, см. При наведении курсора мыши на число - состояние снежного покрова и степень покрытия местности в баллах.